Wind_Speed
17 17 17 16 16 16 15 15 15 14 14 14 14 13 12 12 11 11 11 11 11 11 11 11 11 11 10 10 10 10 9 9 9 9 9 9 9 9 9 9 8 8 8 7 6 6 6 6 6 6 6 6 5 5 5 6 6 6 7 6 6 6 7 6 6 6 6 7 7 7 8 8 9 10 12 13 14 13 13 13 12 12 12 13 15
17 17 17 17 17 18 17 17 16 16 16 16 15 15 14 14 13 13 12 12 11 11 11 11 12 12 12 12 12 12 11 11 11 11 11 11 10 10 10 9 9 9 9 9 9 8 8 8 8 8 7 7 7 6 6 6 7 7 7 6 6 6 7 7 7 7 7 8 9 9 9 9 10 10 12 13 13 14 14 14 14 13 12 13 15
18 18 18 18 18 18 18 18 18 17 17 17 17 17 16 16 15 15 14 13 12 12 12 12 12 12 13 13 13 13 12 12 12 12 12 12 11 11 11 11 11 11 11 11 11 10 10 10 10 10 9 9 9 9 7 7 8 8 8 7 7 7 9 9 9 9 9 9 10 10 10 10 11 11 13 13 13 13 14 14 15 15 14 14 15
21 20 20 19 19 19 19 19 19 18 18 18 18 18 18 17 17 16 16 15 14 14 13 13 13 13 13 13 14 14 13 13 13 13 13 13 13 13 12 12 12 12 12 12 12 12 12 12 13 13 12 11 11 11 11 11 10 10 9 10 10 10 10 11 11 11 12 13 13 13 12 12 12 13 14 14 13 14 15 15 15 15 15 15 15
23 22 22 21 20 20 20 20 20 19 19 19 19 19 19 18 18 18 18 17 16 16 16 16 15 15 14 14 15 15 15 15 15 14 14 14 14 14 14 14 14 14 13 13 14 14 13 13 14 15 14 14 14 14 14 14 13 12 11 12 12 11 11 12 12 11 11 12 13 13 12 13 14 15 15 15 15 15 16 16 16 16 16 16 16
25 24 24 23 23 22 22 22 22 21 21 21 21 20 20 19 19 19 19 19 18 18 18 17 17 16 16 15 16 16 16 16 16 16 15 15 15 15 15 15 15 15 15 15 15 15 14 14 15 16 17 17 17 17 17 17 16 15 14 14 14 13 13 14 14 12 12 13 15 15 14 15 16 17 18 18 17 17 17 17 17 16 16 17 17
26 26 26 26 25 25 25 24 24 24 23 23 23 22 22 22 21 20 20 20 20 20 20 19 18 17 17 16 16 16 16 16 16 16 16 17 16 16 17 17 16 15 16 16 16 16 16 15 16 17 17 19 20 20 20 20 19 18 18 18 17 16 16 17 17 16 16 16 17 18 17 17 17 18 19 20 19 20 19 18 17 16 16 17 18
29 28 28 27 27 27 27 26 25 25 25 25 25 24 24 24 23 22 21 22 22 22 21 20 19 18 18 18 17 17 17 18 18 18 18 18 18 18 18 18 17 16 16 16 16 16 16 15 16 16 17 19 21 21 21 21 21 21 21 20 19 18 18 18 18 17 17 17 18 19 19 19 19 20 20 21 21 21 20 19 18 16 16 18 18
30 30 29 29 29 28 28 27 26 26 26 25 25 24 24 24 24 24 23 24 24 23 22 21 20 19 19 19 18 18 19 19 20 21 20 20 20 20 20 20 20 19 18 19 18 17 16 16 17 17 18 20 21 21 22 23 23 23 22 21 20 19 19 19 18 17 17 17 18 18 18 19 20 20 21 21 21 21 21 20 18 17 15 17 20
31 30 30 30 29 28 28 27 27 27 26 24 23 23 24 25 25 24 24 25 25 24 24 24 23 22 21 21 21 21 21 22 24 24 23 22 22 22 22 22 22 21 20 21 20 20 20 20 20 21 21 21 21 21 23 24 23 23 23 21 21 20 20 20 20 18 18 17 18 18 18 19 20 20 22 23 22 22 22 20 17 16 15 17 21
32 32 32 31 29 29 29 29 28 27 26 24 24 24 25 26 26 26 25 26 26 26 26 26 25 24 23 23 24 24 24 26 27 27 25 24 24 24 25 25 24 23 23 24 22 22 23 23 22 23 23 24 24 23 24 25 24 24 23 23 23 23 22 21 20 19 19 19 19 19 19 20 21 23 24 23 23 23 23 21 20 20 18 19 20
34 33 33 32 30 30 30 29 28 28 27 26 26 26 27 28 29 28 27 26 27 28 28 28 28 28 27 26 26 25 26 28 29 29 28 27 26 26 27 27 27 26 26 26 25 25 25 25 25 24 24 26 27 25 25 27 26 24 24 23 23 23 23 22 21 21 21 22 23 24 23 23 25 27 26 25 26 26 24 24 24 24 24 23 22
35 35 34 32 30 30 29 28 28 28 27 27 27 28 29 30 30 30 29 29 29 29 29 29 29 30 30 28 27 27 29 30 30 29 28 28 28 28 27 27 27 27 27 27 27 27 27 27 28 29 27 27 27 26 27 28 26 25 25 23 22 23 24 24 24 24 24 26 28 28 28 27 27 29 30 29 29 29 28 27 26 26 25 25 24
35 35 34 32 29 29 29 28 27 26 27 27 27 28 28 28 29 30 29 30 29 29 29 30 30 31 31 30 29 30 32 32 32 31 30 30 29 29 28 27 27 27 27 26 26 27 28 28 29 31 31 29 28 28 28 28 27 27 27 26 25 24 24 26 27 27 28 29 30 30 29 29 29 31 31 32 31 31 32 30 29 27 26 25 25
35 35 34 31 29 29 29 27 26 26 26 26 26 27 28 28 29 29 29 30 30 29 29 30 29 30 30 30 30 32 33 34 34 34 33 32 31 30 29 28 28 27 27 26 26 27 28 28 29 31 32 30 28 28 28 28 29 29 28 28 28 27 27 28 30 30 29 30 31 32 31 30 31 32 32 32 31 32 33 32 31 31 29 27 26
34 33 32 30 29 29 29 28 28 27 27 27 27 29 30 30 30 31 32 33 32 31 31 32 30 29 29 29 30 32 35 37 36 35 35 34 33 31 30 29 28 28 27 27 28 28 29 29 28 30 31 30 28 29 30 30 30 31 30 30 31 31 31 32 32 32 32 31 32 33 33 33 33 33 32 32 33 33 34 34 34 34 31 28 25
33 32 32 31 31 31 30 29 29 30 29 29 31 32 33 33 34 35 36 37 37 35 34 33 32 31 31 30 30 32 36 37 36 34 34 34 33 32 30 29 29 29 29 29 30 30 30 29 28 29 31 30 30 30 31 31 31 32 32 31 32 33 34 34 34 34 34 34 34 34 34 34 35 34 34 35 35 35 35 35 36 36 34 31 28
34 33 33 32 32 32 31 32 33 33 33 35 37 37 37 38 38 38 38 39 40 38 36 35 35 35 35 33 32 34 37 37 35 34 34 34 34 33 33 32 31 30 31 31 31 31 30 30 29 31 32 32 31 31 32 32 33 33 33 33 33 34 36 37 36 36 36 36 37 37 36 35 36 36 36 37 37 36 35 36 37 37 37 35 32
34 33 32 32 33 33 34 36 37 38 38 39 40 41 41 42 43 43 43 43 42 40 38 36 35 37 38 38 37 38 39 39 37 35 33 34 35 35 35 34 33 33 32 32 33 33 32 32 32 34 35 35 35 35 35 36 36 37 37 36 37 38 39 40 40 39 39 38 38 39 39 39 38 37 37 37 36 32 29 32 36 38 38 37 35
34 33 33 34 35 35 36 36 36 37 38 37 38 40 41 41 42 44 45 45 45 44 42 39 38 38 40 42 43 42 42 41 39 36 34 35 36 37 37 36 35 35 35 35 35 35 35 35 35 36 37 37 36 37 38 38 38 39 39 39 40 41 42 42 42 42 41 40 39 39 40 40 38 35 34 35 36 32 27 27 32 35 36 37 37
34 34 35 36 36 36 35 33 33 35 36 35 37 39 39 39 41 42 42 42 45 47 47 45 43 40 39 41 44 43 42 41 39 37 36 36 37 37 38 38 37 37 37 38 37 37 37 36 35 35 36 35 34 34 35 35 35 36 36 37 38 38 39 40 40 40 40 39 38 37 36 36 34 31 30 32 35 34 30 29 31 33 33 34 36
38 38 37 36 34 34 34 34 34 35 34 34 34 34 32 32 35 37 38 39 42 45 46 45 42 38 38 41 42 41 40 40 40 40 40 39 38 38 39 39 38 39 39 40 39 38 37 35 34 34 34 34 33 33 33 33 33 33 33 33 33 34 34 35 35 36 36 35 34 33 32 31 30 29 30 30 31 31 30 30 32 33 32 33 35
34 34 33 32 30 27 24 24 25 27 26 25 27 30 30 28 29 33 36 38 39 39 40 39 38 39 41 42 40 39 39 40 41 42 42 40 39 40 39 39 39 39 39 38 37 36 35 34 34 34 34 34 34 34 34 34 34 34 34 34 34 34 34 34 35 35 35 34 34 34 33 32 30 28 28 28 29 29 28 29 30 30 30 30 32
29 29 29 30 30 25 19 16 16 17 16 15 18 24 26 25 26 29 31 34 37 40 40 38 36 37 38 38 37 38 38 38 38 40 40 40 40 41 41 40 39 37 36 35 35 35 34 34 34 34 34 35 35 36 36 36 36 36 36 36 36 36 36 36 36 36 36 36 36 36 34 33 31 28 28 29 30 31 31 30 28 26 26 26 28
25 26 27 28 28 26 23 20 18 16 14 12 13 16 18 18 18 17 16 17 23 31 36 35 32 29 28 27 26 27 29 30 31 30 30 32 35 38 39 39 37 35 35 34 34 34 34 35 35 35 35 35 36 37 38 38 38 38 38 38 38 39 39 39 39 39 39 39 39 38 37 35 33 32 33 34 33 33 33 31 28 27 28 30 31
20 21 23 25 26 26 24 24 23 20 16 14 14 14 15 14 14 12 9 8 9 13 20 22 21 19 18 16 16 17 19 22 24 23 22 24 27 29 31 32 32 32 33 33 33 34 34 35 36 36 36 37 38 38 39 40 40 40 40 41 41 41 41 41 41 42 41 41 41 41 40 39 38 37 38 40 40 40 40 39 37 38 40 41 40
17 18 19 21 22 23 22 22 22 22 19 18 18 18 18 16 15 13 12 11 10 11 12 14 15 16 16 15 15 16 18 21 23 24 24 25 25 25 26 27 28 30 32 33 34 35 35 36 37 38 38 39 39 40 40 41 42 42 42 42 42 42 42 42 42 43 43 43 43 42 42 42 42 41 42 44 45 47 48 48 48 48 48 49 48
15 16 17 18 19 19 19 19 20 21 21 20 20 21 20 19 18 18 18 17 17 17 17 18 19 20 20 20 21 22 23 24 25 25 26 27 27 27 27 28 30 31 33 34 35 36 38 38 39 40 41 41 41 41 41 42 43 43 44 44 44 44 44 44 44 44 45 45 44 44 45 45 45 45 45 46 48 49 51 52 52 51 50 50 50
14 14 14 16 17 18 18 19 20 22 22 22 22 22 21 20 20 20 20 21 21 22 22 23 24 25 25 26 27 28 28 29 29 29 29 30 30 31 32 33 34 35 37 38 39 40 41 42 43 43 44 45 45 45 45 45 45 45 46 46 47 47 47 47 48 48 48 49 48 48 49 49 49 49 49 49 50 51 53 54 54 54 53 52 50
14 14 14 14 15 16 17 18 20 20 22 22 22 22 22 21 21 22 22 22 23 24 24 26 27 28 29 30 31 31 32 32 32 33 33 33 34 35 36 37 38 40 41 42 43 44 45 46 47 47 48 49 49 49 50 49 49 49 49 49 50 51 51 51 51 52 52 52 52 52 53 53 53 53 53 54 54 55 55 56 57 57 57 56 54
18 18 18 18 18 18 19 20 20 21 22 22 23 23 23 23 23 23 23 24 25 25 26 27 28 29 31 32 33 33 34 35 35 35 36 36 37 37 38 40 41 42 43 44 45 46 47 48 49 50 50 51 51 51 52 52 52 53 53 53 53 53 54 54 55 55 55 55 56 56 56 56 56 56 57 57 57 58 58 58 59 59 59 59 58
20 20 21 21 21 22 22 22 22 22 23 23 24 24 25 25 26 26 27 27 28 28 29 30 30 31 32 33 34 35 36 37 38 38 39 39 40 40 41 42 43 44 45 46 47 48 49 50 51 51 52 53 52 52 53 54 54 54 55 55 55 55 55 56 56 56 56 57 57 57 58 58 58 58 59 59 59 60 60 60 60 61 61 61 60
21 21 21 22 22 23 23 23 23 24 24 24 25 25 26 26 27 28 28 29 29 30 30 31 32 33 33 35 36 37 38 38 39 40 41 42 43 43 44 45 46 47 47 48 50 50 51 52 53 54 55 56 55 55 55 56 57 57 57 57 57 57 57 58 57 57 58 57 57 58 58 58 59 59 60 60 60 61 61 60 61 61 61 61 61
20 20 21 21 22 22 23 23 24 24 24 24 25 25 25 26 26 27 28 28 29 30 30 31 31 32 33 34 35 36 37 38 39 40 41 42 43 44 45 46 48 49 49 50 52 52 53 54 55 55 56 57 58 58 58 58 59 59 59 60 60 60 60 60 60 60 60 59 59 59 59 59 60 60 60 60 61 61 61 61 61 61 61 61 61
19 19 20 20 21 21 22 22 23 23 23 23 24 24 24 25 25 26 26 27 28 29 30 31 32 33 33 34 35 36 38 39 40 41 42 43 45 46 47 49 50 51 52 53 54 55 56 57 57 58 59 60 60 61 61 61 62 62 62 63 63 63 63 63 63 63 63 62 62 61 61 61 61 61 61 61 61 61 61 61 61 61 60 61 61
19 19 19 19 20 20 20 21 21 22 22 23 23 24 24 25 25 26 27 28 29 30 31 32 34 35 36 37 38 40 41 42 43 45 46 47 49 50 51 52 54 55 56 57 57 58 59 60 62 62 63 64 64 65 65 66 66 66 66 67 67 67 67 66 66 66 67 66 65 65 65 64 64 63 63 63 62 62 61 61 61 61 61 61 61
18 18 18 18 19 19 20 20 21 21 22 23 23 24 25 26 28 29 30 31 32 34 35 35 37 38 40 41 41 43 45 46 47 48 50 51 52 53 55 56 58 59 60 61 62 62 63 64 65 66 67 67 68 69 70 70 71 71 71 71 71 71 71 71 71 70 70 70 70 69 68 68 67 66 66 65 64 64 63 62 62 62 62 61 62
16 17 17 17 17 18 19 19 20 21 22 24 25 27 28 29 31 32 34 35 36 37 39 40 40 42 43 43 43 45 46 47 49 50 52 53 54 55 57 59 60 62 63 65 65 66 67 68 68 69 70 71 72 73 73 74 74 74 75 75 76 75 75 75 75 75 75 74 73 72 72 71 70 69 68 67 67 66 65 64 64 63 63 62 62
15 15 15 16 16 17 18 20 21 23 24 25 27 28 30 31 33 34 36 37 38 40 41 42 43 44 45 46 47 48 49 51 52 54 55 56 58 58 59 61 62 64 65 66 67 68 70 71 71 72 73 73 74 75 76 77 78 78 78 78 79 79 79 79 79 78 78 77 77 76 76 74 73 72 71 70 69 68 66 65 64 64 63 62 62
15 15 16 17 18 19 20 21 23 24 26 27 29 30 32 34 35 36 38 39 40 41 42 43 45 47 48 50 51 53 54 55 57 58 60 61 62 63 64 65 66 67 68 69 70 71 72 74 74 75 75 76 76 77 78 79 80 80 80 81 82 81 81 81 81 80 80 80 79 79 79 77 76 75 74 73 72 70 69 67 66 65 64 63 62
16 17 18 19 20 22 23 24 26 27 29 30 32 33 35 36 37 38 39 40 41 43 44 46 48 50 51 53 55 56 57 58 59 61 62 63 64 65 66 67 69 70 71 71 72 72 74 75 76 76 77 78 78 78 79 80 82 82 82 83 84 82 82 84 84 83 83 82 80 79 79 78 77 76 75 74 72 71 69 68 67 66 65 64 63
18 19 20 21 22 24 26 27 29 30 32 33 34 35 36 37 38 39 41 42 44 46 48 50 51 53 54 55 56 58 59 60 60 61 62 63 64 65 66 68 69 70 71 71 72 72 73 74 74 74 75 76 76 77 78 80 82 83 83 84 84 83 83 85 85 84 83 83 81 80 79 78 77 76 75 73 72 70 69 68 67 66 65 64 63
19 20 21 23 24 26 27 29 30 31 33 34 34 35 36 38 39 40 42 44 45 48 50 51 53 55 56 57 58 59 61 61 62 63 64 65 65 66 66 67 68 69 69 69 69 69 70 71 71 70 71 71 72 72 73 74 76 77 78 81 83 83 83 85 85 83 81 80 80 79 78 76 74 72 71 70 69 68 67 65 65 64 63 63 63
21 22 23 25 26 27 29 30 31 32 32 33 34 35 36 38 40 42 43 45 47 49 51 53 55 56 58 59 59 60 62 63 63 64 64 65 65 65 66 66 66 67 67 66 66 66 67 66 66 66 66 68 68 68 69 70 70 71 72 74 76 77 78 79 78 76 75 74 73 72 72 71 69 67 66 65 64 63 63 63 62 62 61 61 61
23 25 26 27 28 30 30 31 31 32 32 33 35 36 38 40 42 44 46 48 49 51 53 54 56 57 58 59 60 60 61 62 62 62 63 63 64 64 65 65 65 65 65 64 64 65 65 65 64 65 65 66 67 67 68 68 68 68 67 67 66 65 65 66 65 66 67 68 67 67 66 64 62 60 59 58 56 56 57 57 57 57 57 57 58
24 26 27 28 28 29 29 29 30 31 32 34 36 38 40 42 44 46 48 50 51 53 54 55 57 57 58 59 59 59 60 61 61 61 61 61 61 61 61 62 62 62 62 62 62 63 64 64 64 65 66 66 66 67 67 67 67 66 63 59 55 54 55 56 57 58 57 56 57 58 58 56 55 54 55 54 53 52 52 52 53 53 53 53 53
26 27 28 28 28 28 28 29 30 31 33 35 37 39 42 44 46 48 49 51 52 53 54 55 55 56 56 57 57 58 59 59 60 60 60 59 59 59 59 59 59 59 60 60 60 61 62 63 63 63 64 64 64 64 64 64 63 59 53 48 48 49 50 50 50 48 45 45 47 49 48 46 46 47 49 49 49 49 48 48 48 49 49 50 50
28 28 29 29 28 28 29 30 31 33 35 38 39 41 44 46 48 50 51 52 52 53 54 54 54 55 55 56 56 57 58 58 58 58 58 57 56 57 57 57 57 57 58 58 58 58 58 59 59 60 60 61 61 61 60 57 54 49 43 41 43 47 49 49 49 48 47 48 49 48 46 44 44 45 46 47 48 48 48 47 47 47 47 48 48
29 30 29 29 30 30 31 32 34 36 38 40 42 44 47 49 50 52 53 53 53 53 54 54 54 55 56 56 57 57 58 58 57 57 57 56 56 55 54 54 55 55 55 55 55 54 54 55 55 57 58 59 58 55 52 49 48 46 43 41 41 42 44 46 48 49 49 48 46 44 43 43 44 45 45 42 40 40 41 42 42 42 43 44 44
30 30 30 30 30 31 32 34 36 38 41 43 46 48 49 51 53 54 55 55 54 54 54 54 55 56 56 56 57 58 58 58 57 56 56 55 54 53 52 51 52 52 52 51 51 51 51 51 53 55 55 53 50 47 45 44 45 46 46 44 41 39 39 40 41 43 44 43 42 41 40 39 40 44 46 43 39 38 38 38 37 37 38 39 41
31 31 31 31 32 33 34 36 38 41 44 46 48 50 52 54 56 56 56 56 55 55 55 56 57 58 58 58 58 58 58 57 57 56 54 52 51 49 49 49 49 49 49 49 48 47 47 49 51 52 49 45 43 41 40 39 40 42 43 43 42 41 40 39 38 37 38 38 39 40 40 39 40 44 47 48 47 46 44 41 40 39 40 41 42
Wind_Direction
214 217 218 217 216 217 218 220 222 223 225 226 227 227 226 224 226 227 229 230 229 230 233 236 239 240 242 245 247 250 253 256 256 257 260 264 267 269 271 274 277 277 278 276 274 275 277 280 282 282 284 284 286 289 291 296 300 301 301 296 294 297 298 302 303 300 306 308 308 310 311 311 311 312 312 310 309 311 312 313 314 314 316 319 321
218 220 223 224 222 221 220 221 223 225 226 227 229 230 230 229 230 231 232 233 233 234 236 238 240 240 240 242 245 249 254 259 261 261 262 264 265 268 271 275 278 278 279 279 278 277 277 278 279 276 276 278 279 278 280 289 290 286 285 283 284 289 288 287 289 292 295 295 295 301 306 303 302 308 309 305 307 311 308 307 308 309 313 315 314
222 223 225 227 227 227 226 225 227 228 229 230 231 231 233 233 234 236 237 238 238 239 240 242 243 243 243 244 246 248 252 257 261 263 265 265 266 268 270 272 275 278 280 281 280 280 280 279 276 272 270 270 271 270 267 269 272 272 276 277 275 278 281 282 286 288 292 296 297 298 302 301 302 308 309 307 311 312 308 308 309 309 312 313 312
225 226 228 229 229 229 229 229 230 231 232 234 234 235 236 236 238 240 242 243 244 245 246 247 248 248 249 250 251 252 254 256 259 262 264 266 266 267 268 270 272 273 274 277 277 277 277 277 276 273 270 267 266 265 262 259 258 262 269 273 272 277 283 285 289 297 306 311 307 304 307 305 300 300 304 307 312 314 313 313 311 310 313 313 313
226 227 228 230 231 232 233 232 233 234 236 237 237 238 239 240 242 244 247 248 248 250 250 251 252 253 255 256 256 257 258 258 258 259 261 263 266 267 267 267 270 272 273 275 275 276 276 277 276 276 275 273 271 269 267 265 263 262 264 268 273 277 281 282 287 295 298 295 289 288 292 293 289 290 294 298 305 310 310 311 312 313 315 316 315
226 228 229 231 232 233 235 236 236 237 239 240 240 240 241 242 243 245 249 251 252 252 253 254 255 256 257 258 258 258 259 260 260 259 258 259 260 262 263 263 266 270 272 272 271 272 272 272 274 277 278 278 278 277 275 273 272 271 268 267 270 273 275 277 280 280 277 276 275 274 275 280 284 286 288 291 299 303 304 307 309 310 312 314 315
226 229 230 232 233 234 235 236 238 240 241 244 245 245 245 245 245 246 249 253 254 254 254 254 255 256 257 257 258 258 258 258 259 258 257 256 253 253 256 259 260 263 265 267 268 268 267 267 271 275 278 280 279 278 278 276 274 274 271 268 269 271 274 277 278 279 279 280 281 281 279 277 279 283 286 290 294 296 298 300 297 300 309 313 312
228 230 231 232 234 235 237 238 240 242 244 246 248 249 250 251 251 250 251 253 255 257 257 256 255 256 257 257 257 257 258 258 258 257 257 256 254 253 256 259 260 260 260 262 265 267 269 271 273 272 273 276 275 273 274 274 271 270 268 268 270 272 273 274 276 277 277 278 278 279 280 279 279 284 287 289 291 292 298 298 288 285 299 308 308
231 232 232 234 237 238 240 241 243 245 247 249 252 255 257 258 259 259 258 258 258 260 262 262 259 256 256 257 257 257 258 259 260 260 259 259 258 257 258 259 259 261 263 263 266 269 271 272 274 272 271 273 273 272 271 270 269 269 269 269 270 269 270 272 273 272 271 273 274 276 280 281 284 290 290 290 290 289 294 296 287 278 286 302 307
236 236 236 238 240 242 244 245 246 248 251 253 256 260 262 264 264 264 264 265 264 265 265 264 263 260 258 259 258 258 258 259 259 260 260 260 261 261 262 262 261 264 266 266 268 271 270 270 274 275 275 277 276 273 272 272 272 273 273 273 271 269 268 269 270 270 269 273 277 278 281 282 285 291 292 289 287 284 285 287 284 278 279 288 297
238 239 240 240 241 243 245 247 248 250 251 251 253 255 257 260 261 260 262 264 265 265 265 265 264 262 260 260 260 260 263 264 263 262 261 260 260 261 262 264 264 266 266 265 266 268 267 267 269 271 275 278 274 270 271 274 276 277 277 276 274 272 270 269 270 274 276 280 282 281 282 284 287 290 290 287 285 285 284 281 278 278 279 279 283
239 240 242 242 241 244 247 248 249 250 250 250 250 252 254 257 258 259 258 258 258 260 261 261 262 261 259 258 259 262 264 265 265 264 264 264 262 260 260 262 264 264 265 265 266 267 267 267 266 266 268 272 273 273 272 273 275 276 275 275 276 276 274 273 275 280 283 286 286 284 285 287 289 291 289 287 287 287 284 281 278 279 281 282 283
240 241 243 244 244 247 249 250 250 252 253 253 252 252 253 255 257 258 256 255 257 259 260 259 258 259 259 257 259 261 261 262 265 266 267 265 263 261 261 262 264 264 264 264 264 264 264 263 263 263 263 264 268 270 269 269 272 273 271 271 272 274 274 274 276 279 282 284 285 285 287 289 290 292 292 292 291 289 286 283 282 282 282 282 282
239 242 243 243 245 248 249 250 250 250 251 252 252 252 252 254 256 257 256 257 258 260 262 261 260 260 260 260 259 259 259 260 264 268 268 266 265 265 264 264 264 264 263 263 263 263 263 260 259 261 262 262 263 264 264 264 265 265 266 267 268 269 270 271 272 276 279 282 283 283 284 286 287 290 293 294 293 291 287 283 282 283 283 279 280
236 239 239 239 242 243 243 244 245 245 246 247 248 250 251 253 257 259 260 260 259 259 260 262 263 263 262 262 261 260 259 260 263 266 267 267 266 266 264 263 263 262 261 262 262 262 261 259 258 258 260 262 264 265 263 261 260 259 262 265 266 268 270 271 273 277 279 281 284 284 283 283 284 287 290 291 292 290 287 283 281 283 283 279 280
234 236 236 237 238 237 237 240 242 244 246 249 251 252 252 252 255 260 262 261 260 259 258 260 263 265 264 262 260 259 260 262 263 265 266 266 265 264 263 261 259 258 258 258 258 259 259 259 258 258 260 262 265 266 264 263 262 262 263 264 266 269 271 272 275 278 278 280 283 285 285 285 285 286 288 290 291 290 287 283 280 281 282 281 281
234 235 236 237 237 238 240 242 245 247 249 251 253 254 255 254 255 257 258 258 259 260 261 261 260 261 261 259 256 256 258 260 261 261 262 263 263 262 261 259 256 255 255 255 255 257 259 259 260 260 261 262 262 264 266 266 266 266 266 267 268 270 272 274 275 277 278 281 282 283 286 288 288 288 288 290 292 291 287 283 279 277 276 278 279
234 235 238 239 241 244 247 249 251 254 255 255 255 256 256 255 255 255 253 255 258 260 261 261 259 258 258 256 254 255 256 257 258 258 259 261 261 260 259 258 255 255 256 256 257 258 259 260 261 262 263 264 265 266 267 268 269 270 271 271 271 272 272 273 274 275 277 279 281 282 283 285 287 289 288 290 293 292 288 285 281 276 272 271 270
236 239 243 245 248 249 252 255 258 259 259 258 258 257 255 254 255 256 255 255 257 258 260 261 259 257 257 255 254 256 256 256 258 259 259 259 258 257 258 258 257 257 257 258 260 261 261 261 262 263 265 268 270 270 270 269 270 270 271 272 273 274 274 274 275 276 277 277 278 279 280 280 284 288 289 290 290 286 284 284 282 277 272 265 261
239 243 246 249 252 254 256 258 260 260 259 258 258 257 255 254 254 255 255 256 257 256 255 255 253 253 256 255 254 256 258 258 259 261 260 258 257 256 257 257 258 259 260 261 262 263 263 263 264 265 267 268 270 271 271 271 270 270 270 272 273 275 276 277 279 280 280 279 278 278 278 280 282 285 286 288 286 280 278 282 282 278 272 263 257
240 244 248 252 255 257 257 254 253 254 254 253 254 256 258 258 257 255 253 252 253 253 252 252 252 252 255 255 254 255 258 259 259 259 260 259 257 258 258 258 260 262 263 264 265 266 267 267 267 267 267 268 269 270 271 271 271 271 271 272 273 275 277 280 282 283 283 282 282 281 281 281 281 279 279 281 281 277 274 277 280 280 274 265 259
240 243 246 249 252 255 256 250 246 246 245 244 245 247 250 252 253 252 249 246 247 250 250 250 250 250 252 254 255 256 259 260 259 259 259 258 257 258 259 261 264 267 267 268 268 268 268 267 266 266 266 267 269 270 271 271 272 272 273 273 273 275 277 279 282 283 284 284 284 285 285 285 283 280 280 279 272 267 267 272 279 281 276 268 263
230 231 233 235 237 244 250 246 241 242 245 246 240 233 232 236 241 247 250 250 249 248 245 246 249 251 254 257 258 258 260 261 260 259 258 255 255 257 260 263 266 268 268 266 265 265 265 265 265 266 266 267 269 270 272 273 274 275 275 276 276 276 277 278 280 282 283 284 284 285 286 287 286 284 284 278 267 263 269 276 280 281 277 272 269
215 219 222 224 228 232 238 242 245 251 258 253 233 225 230 238 245 251 257 257 254 249 248 252 256 257 256 258 258 258 259 260 260 259 258 257 257 258 259 261 263 263 263 262 263 264 265 265 266 267 268 268 270 271 272 273 274 276 277 278 279 279 279 280 280 281 282 282 282 283 284 285 284 278 275 272 268 267 271 275 276 276 275 275 276
218 222 224 227 233 238 243 252 262 271 275 262 234 225 232 240 247 254 262 263 256 247 244 248 253 254 254 254 252 252 253 254 255 257 260 261 260 258 256 255 255 256 258 260 263 264 266 267 267 268 269 269 270 271 272 273 274 275 276 277 279 280 280 281 281 281 281 281 282 282 282 283 281 275 269 268 269 269 268 268 269 271 274 278 280
234 237 238 241 246 251 255 260 265 269 273 267 252 243 241 243 249 255 259 266 258 236 230 234 240 243 242 238 235 238 243 246 248 249 250 254 256 256 254 252 253 254 257 259 261 263 265 267 268 269 269 271 272 273 274 275 275 276 277 278 278 278 279 279 280 280 281 280 281 281 281 280 279 276 272 270 270 271 271 270 270 273 276 280 282
246 248 250 253 256 259 262 265 267 268 270 268 262 257 252 250 254 259 260 262 260 249 242 242 242 242 240 237 240 245 250 253 255 254 254 256 260 263 262 261 261 262 262 263 264 266 267 269 270 271 272 272 273 274 276 277 278 278 278 279 279 279 279 279 280 280 280 280 280 280 280 279 278 277 275 273 274 275 276 277 277 279 281 282 283
255 254 254 255 258 261 263 263 264 265 265 263 259 257 257 258 261 266 268 267 264 262 259 254 250 251 253 253 256 261 265 266 266 265 266 267 270 271 271 270 270 269 268 268 269 270 271 273 273 275 275 276 276 276 277 278 279 279 280 280 280 280 280 280 279 279 279 280 279 279 279 279 278 278 277 277 277 278 279 280 282 284 285 286 286
259 257 255 254 255 257 259 260 260 260 261 261 260 261 264 268 269 271 271 270 269 267 265 262 261 264 267 268 270 273 276 277 276 276 276 276 276 276 276 275 275 274 274 274 274 274 275 276 276 277 277 278 278 278 278 278 279 279 280 280 280 280 280 279 279 279 279 279 280 280 280 279 279 279 279 279 279 279 280 282 283 285 286 287 287
257 258 257 256 256 257 259 262 263 265 267 269 271 273 275 275 275 276 276 276 275 274 274 274 274 275 277 280 281 282 282 283 283 283 282 282 281 280 279 278 278 278 278 278 278 278 278 278 278 278 279 279 279 280 280 279 279 279 279 280 280 280 280 280 280 280 279 279 280 280 280 280 280 280 280 280 280 280 280 281 282 283 284 285 286
252 255 255 256 257 258 261 263 266 268 271 273 276 278 279 279 278 277 276 275 275 276 276 276 277 278 280 281 283 284 285 285 286 285 285 284 284 283 282 282 281 281 281 280 280 280 280 280 280 280 280 280 280 281 281 281 281 281 280 280 280 280 280 280 280 280 280 280 280 280 280 280 280 280 280 280 280 280 280 280 281 281 282 283 284
251 253 256 258 260 262 264 266 268 269 271 273 275 277 279 281 281 281 281 280 278 277 277 277 277 277 278 280 281 282 282 283 284 285 285 285 284 284 284 284 283 283 283 282 282 281 281 281 281 281 281 281 281 282 282 282 282 281 281 280 280 280 280 280 280 280 280 280 280 280 280 280 280 280 280 280 280 279 279 280 280 280 280 281 281
254 256 259 262 264 266 269 271 273 274 275 276 276 278 279 281 282 283 284 284 284 284 283 282 281 281 280 280 280 280 281 281 282 283 283 284 285 286 286 286 285 285 285 284 284 284 284 284 284 284 284 284 284 284 284 284 284 284 283 283 282 282 282 281 281 281 280 280 279 279 279 279 279 279 279 279 279 279 279 279 279 279 279 279 280
258 260 262 265 267 270 272 274 275 277 278 279 280 281 281 282 283 284 285 286 287 288 289 289 289 288 287 287 286 285 285 285 285 285 285 285 286 286 286 286 285 285 285 285 285 284 284 285 285 285 285 285 285 285 285 285 285 285 285 285 285 284 284 284 284 283 283 282 282 281 280 280 279 279 278 278 278 278 278 278 278 278 279 279 279
262 263 265 267 269 271 273 275 276 278 280 281 283 284 285 285 286 286 286 287 287 287 288 289 289 289 289 289 289 288 288 287 287 287 286 286 286 285 285 285 284 284 284 284 284 285 285 285 285 285 285 285 285 285 285 285 285 285 285 285 285 285 285 285 284 284 284 284 283 283 282 282 282 281 281 280 280 279 279 279 279 279 279 279 279
263 265 267 269 271 273 276 278 280 281 283 285 286 286 287 288 288 288 289 289 289 288 289 289 289 289 289 289 290 290 289 289 289 288 288 288 288 287 287 286 286 285 284 284 284 284 285 285 285 285 285 285 285 285 285 285 285 285 285 285 284 284 284 284 284 284 284 284 283 283 283 283 282 282 282 281 281 281 280 280 280 280 279 279 279
261 264 267 270 273 275 278 280 282 284 286 288 289 291 292 293 294 294 294 294 294 294 293 293 292 292 292 292 292 292 291 291 290 290 289 289 288 288 288 287 287 286 286 285 285 284 284 284 284 284 284 284 284 284 284 284 284 284 284 284 284 284 284 283 283 283 282 282 282 283 283 283 283 282 282 282 282 281 281 281 280 280 279 279 279
261 264 268 271 273 276 279 282 284 287 289 292 293 295 296 296 296 297 297 297 297 296 296 295 295 294 294 294 294 293 293 292 292 291 290 289 289 288 288 288 287 287 286 286 285 285 284 283 283 283 283 283 283 282 282 282 282 282 282 282 282 282 282 282 282 282 281 282 282 281 281 281 281 281 281 281 281 280 280 280 279 279 279 278 278
265 267 271 275 277 281 284 287 290 291 293 294 295 296 296 296 297 297 297 297 297 296 296 296 296 295 295 295 295 294 294 294 294 293 293 292 291 290 290 289 288 287 287 286 286 285 284 283 282 282 281 281 281 282 282 281 281 280 281 281 280 280 280 280 280 280 281 281 280 280 280 280 280 280 279 279 279 278 278 278 278 278 277 277 277
273 276 279 283 286 289 290 292 293 294 295 296 297 297 297 297 297 297 298 297 297 297 297 297 297 297 297 297 297 296 296 295 295 295 294 294 293 293 292 291 290 289 288 288 287 286 285 285 283 283 282 281 281 281 281 280 280 279 279 279 278 278 279 279 278 278 278 279 279 279 279 279 279 279 278 278 278 277 277 277 277 276 276 275 275
281 285 288 291 293 295 296 297 298 299 299 300 300 300 300 300 300 300 299 299 299 299 298 298 298 298 298 298 297 297 296 296 295 294 294 293 293 292 292 291 290 290 289 289 288 288 287 286 285 285 284 283 282 281 281 280 279 278 278 278 278 278 278 277 277 277 277 277 277 277 277 277 277 277 277 276 276 276 276 275 275 275 275 274 274
284 288 292 294 296 297 299 300 300 300 301 300 300 300 300 300 300 300 300 300 301 301 300 300 300 300 299 299 298 297 296 295 294 293 293 292 292 291 291 290 290 289 289 289 289 288 287 286 285 285 284 284 283 282 282 281 281 280 280 279 278 278 278 277 277 277 276 276 275 274 274 275 275 275 275 275 274 274 274 274 274 274 273 273 273
286 289 291 292 294 295 295 296 296 297 297 298 299 299 300 300 301 302 302 302 303 303 303 302 302 302 301 300 298 297 296 295 294 294 293 293 292 292 291 290 290 289 289 288 288 287 286 286 286 286 285 285 284 284 283 283 283 283 282 281 279 278 277 277 277 277 277 277 276 275 274 274 273 273 273 273 274 274 273 273 273 273 273 273 272
289 291 291 292 293 294 294 295 296 297 298 299 300 301 302 304 304 305 305 305 305 305 304 304 303 303 301 300 298 297 295 294 294 294 293 293 293 292 292 291 290 289 289 289 288 287 286 287 287 288 288 288 287 287 287 286 285 284 283 282 280 278 277 276 276 276 275 276 276 277 277 276 276 276 275 275 274 274 273 272 272 272 272 272 272
290 292 293 294 295 295 296 297 298 299 301 303 305 306 307 307 307 307 307 306 306 305 305 305 304 302 300 298 297 296 294 293 293 293 292 292 292 292 291 290 290 289 289 288 288 287 287 288 288 289 289 290 290 291 290 290 289 288 286 284 282 279 277 276 276 276 276 276 277 278 279 279 279 278 278 278 276 275 273 273 272 272 271 271 271
293 293 293 294 294 294 295 296 298 301 304 305 307 308 308 308 308 308 308 308 307 306 306 306 304 302 299 298 297 296 295 295 294 294 294 293 293 292 291 290 289 288 287 287 286 287 288 289 289 290 290 290 291 291 290 290 290 289 287 284 283 282 281 280 279 279 278 278 278 279 279 279 278 276 276 277 277 275 274 273 272 272 271 271 271
295 295 294 293 292 292 294 296 299 303 305 305 306 307 308 309 310 310 309 308 307 306 305 304 302 300 299 298 298 297 297 297 296 296 295 295 294 293 292 291 289 288 288 288 288 289 290 290 291 291 291 291 291 290 290 290 289 286 284 282 281 280 281 281 280 278 277 278 280 282 282 281 278 275 274 275 275 275 275 274 273 271 271 271 270
295 294 292 292 292 293 296 299 302 304 305 305 307 309 310 311 311 311 310 309 307 306 305 304 302 301 301 300 300 299 299 298 298 297 296 296 294 293 292 291 290 289 290 290 291 291 291 291 291 292 292 292 292 290 289 287 283 279 278 279 278 277 276 275 274 274 277 280 283 282 280 276 275 276 276 276 276 274 274 273 272 270 269 269 269
294 293 292 292 293 296 299 302 303 304 305 307 309 312 313 313 312 312 311 309 307 306 306 305 304 304 304 303 303 302 301 301 300 298 297 296 295 293 292 291 290 290 291 291 292 293 292 293 294 295 296 295 293 290 287 283 276 270 271 276 280 280 278 275 273 274 277 279 279 278 275 273 272 272 272 271 270 269 267 266 266 265 265 266 267
293 292 292 293 295 298 301 303 304 306 307 309 311 313 314 314 313 313 312 310 308 307 307 306 305 305 305 304 304 303 303 301 300 298 297 296 295 294 293 292 291 291 292 293 293 293 294 296 299 300 298 296 292 289 286 284 279 274 273 277 282 286 286 283 278 275 276 275 273 273 273 272 270 268 268 270 274 278 278 276 275 273 272 272 272
293 292 292 293 296 299 302 303 305 307 309 310 312 313 314 314 314 313 312 310 309 308 308 308 307 306 306 305 304 304 303 301 299 298 296 295 294 294 293 293 292 293 294 294 294 294 296 300 303 302 298 294 292 290 289 288 286 283 281 280 281 284 288 289 286 281 279 276 271 267 267 270 272 272 273 277 283 286 287 287 286 284 283 281 281
Height
5921 5922 5923 5925 5926 5928 5929 5930 5931 5932 5933 5934 5934 5935 5936 5936 5937 5938 5938 5939 5939 5940 5941 5941 5942 5942 5943 5943 5944 5944 5944 5944 5945 5945 5945 5945 5946 5946 5947 5947 5947 5947 5947 5947 5947 5947 5947 5946 5946 5946 5945 5945 5944 5944 5944 5944 5944 5944 5945 5944 5943 5943 5942 5941 5940 5941 5940 5939 5939 5939 5938 5937 5936 5936 5934 5933 5933 5932 5931 5930 5930 5929 5928 5926 5925
5919 5921 5922 5923 5925 5926 5928 5929 5930 5930 5931 5932 5933 5934 5935 5935 5936 5937 5937 5938 5938 5939 5940 5940 5941 5941 5942 5943 5943 5943 5943 5944 5944 5945 5945 5945 5945 5946 5946 5946 5947 5947 5947 5947 5947 5947 5946 5946 5946 5945 5945 5944 5944 5944 5944 5944 5944 5944 5944 5944 5943 5942 5942 5941 5940 5940 5939 5938 5937 5937 5936 5935 5935 5934 5934 5933 5932 5931 5931 5930 5929 5928 5927 5926 5924
5917 5919 5920 5922 5923 5925 5926 5927 5928 5929 5930 5930 5932 5932 5933 5934 5935 5935 5936 5937 5938 5938 5939 5939 5940 5941 5941 5942 5942 5942 5943 5943 5944 5944 5944 5944 5945 5945 5945 5946 5946 5946 5946 5946 5946 5946 5946 5946 5945 5945 5944 5944 5943 5943 5943 5943 5943 5943 5943 5943 5942 5941 5941 5940 5939 5939 5939 5938 5937 5937 5936 5935 5934 5933 5933 5933 5932 5931 5930 5929 5928 5927 5926 5925 5924
5915 5917 5918 5920 5921 5923 5924 5925 5926 5927 5928 5929 5930 5931 5932 5933 5933 5934 5935 5936 5937 5937 5938 5939 5939 5940 5941 5941 5942 5942 5942 5943 5943 5943 5943 5944 5944 5944 5944 5944 5945 5945 5945 5945 5945 5945 5945 5945 5944 5944 5943 5943 5943 5942 5942 5941 5941 5942 5942 5941 5940 5940 5939 5939 5939 5940 5940 5940 5939 5938 5937 5935 5934 5933 5932 5932 5931 5929 5929 5928 5927 5926 5925 5924 5923
5913 5915 5916 5917 5919 5920 5922 5923 5924 5925 5926 5927 5928 5929 5930 5931 5932 5933 5934 5935 5936 5936 5937 5938 5938 5939 5940 5940 5941 5941 5941 5942 5942 5942 5942 5942 5943 5943 5943 5943 5943 5943 5943 5943 5943 5943 5943 5943 5943 5943 5943 5942 5942 5942 5941 5940 5940 5940 5940 5940 5939 5938 5937 5937 5938 5939 5940 5938 5936 5936 5935 5933 5932 5931 5931 5930 5929 5928 5927 5927 5926 5925 5924 5923 5922
5911 5913 5914 5915 5917 5918 5919 5920 5921 5922 5923 5924 5926 5927 5928 5929 5931 5932 5932 5933 5934 5935 5936 5937 5937 5938 5939 5939 5939 5940 5940 5940 5940 5941 5941 5940 5941 5941 5941 5941 5942 5942 5942 5941 5941 5941 5941 5941 5941 5941 5942 5942 5941 5941 5941 5940 5939 5939 5939 5939 5938 5937 5936 5935 5935 5936 5936 5934 5933 5933 5933 5931 5930 5929 5929 5928 5927 5926 5926 5925 5924 5924 5923 5922 5921
5909 5910 5912 5913 5914 5915 5917 5918 5919 5920 5921 5922 5924 5925 5926 5927 5929 5930 5931 5931 5932 5933 5934 5935 5936 5937 5937 5937 5938 5938 5938 5938 5938 5938 5939 5939 5939 5938 5938 5938 5939 5940 5940 5939 5939 5939 5939 5939 5938 5939 5939 5939 5939 5939 5939 5938 5938 5937 5937 5937 5936 5936 5935 5934 5933 5934 5934 5933 5932 5931 5932 5931 5929 5928 5926 5926 5925 5924 5923 5923 5923 5922 5921 5921 5920
5906 5908 5909 5911 5912 5913 5914 5916 5917 5919 5920 5921 5922 5923 5924 5925 5927 5928 5929 5929 5930 5930 5932 5933 5935 5935 5935 5936 5936 5936 5936 5936 5936 5936 5937 5937 5937 5937 5936 5936 5937 5937 5937 5937 5937 5937 5937 5936 5936 5936 5936 5936 5936 5936 5936 5936 5935 5934 5934 5935 5935 5934 5933 5932 5931 5932 5932 5931 5930 5929 5929 5929 5928 5927 5925 5924 5924 5922 5921 5921 5921 5919 5918 5918 5918
5903 5905 5907 5908 5909 5911 5912 5914 5916 5917 5918 5919 5921 5923 5924 5925 5925 5926 5927 5927 5928 5929 5930 5931 5933 5934 5934 5934 5934 5934 5934 5934 5934 5934 5934 5935 5935 5935 5934 5934 5935 5935 5935 5935 5934 5934 5934 5934 5934 5934 5934 5933 5933 5934 5933 5933 5932 5932 5932 5933 5932 5932 5931 5929 5929 5929 5929 5928 5927 5927 5926 5925 5924 5924 5924 5923 5923 5923 5921 5919 5919 5918 5917 5916 5916
5901 5903 5904 5906 5907 5909 5910 5912 5913 5915 5916 5919 5921 5922 5923 5923 5923 5924 5925 5925 5926 5927 5928 5929 5930 5932 5932 5931 5931 5931 5931 5931 5931 5932 5932 5933 5933 5933 5933 5932 5932 5932 5932 5932 5932 5932 5932 5932 5932 5931 5931 5931 5932 5932 5931 5930 5931 5931 5931 5930 5930 5930 5929 5928 5927 5926 5926 5925 5924 5924 5924 5922 5921 5921 5920 5920 5920 5920 5920 5918 5917 5917 5915 5914 5914
5898 5900 5901 5903 5905 5907 5908 5909 5911 5912 5915 5917 5918 5919 5919 5919 5919 5920 5921 5922 5923 5924 5925 5926 5927 5928 5929 5929 5928 5929 5929 5929 5929 5929 5930 5930 5931 5930 5930 5930 5929 5929 5929 5929 5929 5929 5929 5930 5930 5929 5928 5928 5929 5929 5929 5929 5929 5929 5929 5928 5928 5927 5927 5926 5925 5924 5923 5923 5922 5922 5922 5920 5919 5918 5918 5917 5916 5916 5916 5915 5915 5915 5913 5911 5910
5895 5896 5897 5900 5903 5904 5905 5907 5908 5910 5911 5914 5915 5916 5916 5915 5915 5916 5918 5919 5920 5920 5921 5922 5923 5924 5924 5925 5926 5926 5926 5926 5926 5926 5927 5928 5928 5927 5927 5927 5927 5927 5927 5927 5927 5926 5926 5926 5926 5926 5926 5925 5925 5926 5926 5926 5926 5926 5926 5925 5925 5925 5925 5925 5924 5923 5922 5921 5919 5919 5919 5919 5917 5916 5915 5915 5914 5913 5913 5912 5912 5911 5910 5909 5908
5892 5893 5894 5897 5900 5902 5903 5904 5906 5907 5909 5910 5912 5913 5913 5912 5913 5914 5914 5915 5916 5917 5917 5918 5919 5920 5920 5922 5923 5923 5922 5922 5922 5923 5924 5925 5925 5924 5924 5925 5924 5924 5924 5924 5924 5923 5923 5923 5922 5921 5921 5921 5922 5922 5922 5922 5923 5923 5922 5921 5921 5921 5922 5922 5922 5921 5920 5918 5916 5915 5916 5916 5915 5913 5912 5911 5911 5909 5909 5909 5908 5908 5907 5906 5905
5889 5891 5892 5895 5897 5899 5900 5901 5903 5904 5905 5906 5908 5909 5910 5910 5911 5911 5912 5912 5913 5914 5916 5916 5916 5917 5917 5919 5920 5919 5918 5918 5919 5920 5921 5921 5921 5921 5921 5922 5922 5921 5921 5921 5921 5920 5920 5919 5919 5918 5917 5917 5918 5918 5918 5918 5919 5919 5918 5918 5917 5917 5917 5918 5917 5917 5916 5915 5913 5912 5913 5913 5912 5911 5909 5908 5907 5906 5905 5905 5905 5905 5904 5902 5902
5886 5887 5889 5891 5894 5896 5897 5898 5899 5900 5901 5902 5903 5905 5906 5907 5908 5909 5910 5910 5910 5912 5913 5913 5913 5914 5914 5915 5917 5916 5914 5914 5915 5915 5917 5917 5917 5917 5917 5918 5918 5918 5918 5918 5917 5917 5916 5916 5916 5915 5914 5915 5915 5915 5914 5914 5914 5914 5915 5915 5914 5913 5913 5913 5912 5912 5912 5911 5909 5909 5909 5909 5908 5907 5906 5904 5903 5902 5901 5901 5901 5901 5901 5899 5899
5883 5885 5887 5889 5891 5892 5894 5895 5895 5896 5898 5899 5900 5900 5902 5903 5904 5905 5906 5907 5907 5908 5909 5909 5910 5911 5911 5912 5913 5912 5909 5909 5910 5911 5912 5912 5913 5913 5914 5914 5914 5914 5914 5914 5914 5913 5912 5913 5913 5912 5912 5913 5912 5911 5910 5910 5911 5911 5911 5911 5911 5910 5909 5908 5909 5908 5907 5906 5905 5904 5904 5904 5903 5903 5902 5900 5899 5898 5897 5896 5896 5897 5897 5896 5895
5882 5883 5884 5886 5887 5888 5890 5891 5892 5893 5894 5895 5896 5896 5897 5898 5899 5900 5901 5902 5903 5904 5904 5906 5907 5907 5906 5907 5907 5906 5905 5905 5906 5907 5907 5908 5908 5909 5910 5910 5910 5910 5910 5910 5910 5909 5909 5909 5910 5909 5908 5909 5909 5908 5907 5907 5908 5908 5908 5908 5908 5906 5905 5904 5905 5904 5903 5902 5901 5899 5899 5899 5898 5898 5897 5895 5894 5894 5893 5892 5891 5892 5892 5892 5891
5879 5880 5881 5883 5883 5885 5886 5887 5888 5890 5891 5891 5891 5891 5893 5893 5894 5895 5896 5896 5897 5898 5900 5902 5902 5902 5901 5901 5902 5901 5901 5901 5902 5903 5903 5904 5904 5905 5905 5905 5905 5906 5905 5905 5905 5905 5905 5906 5906 5905 5904 5904 5904 5904 5904 5904 5904 5904 5904 5904 5903 5902 5901 5901 5901 5900 5899 5898 5896 5895 5894 5894 5894 5893 5892 5890 5889 5888 5887 5886 5886 5886 5887 5887 5886
5876 5877 5878 5879 5879 5880 5882 5882 5883 5886 5886 5886 5886 5886 5887 5888 5889 5889 5890 5890 5891 5893 5896 5897 5898 5897 5896 5896 5897 5897 5897 5897 5898 5899 5899 5900 5900 5900 5900 5900 5901 5901 5901 5900 5900 5900 5900 5901 5902 5900 5900 5900 5900 5900 5900 5900 5900 5899 5899 5899 5899 5898 5897 5896 5896 5896 5895 5894 5893 5891 5890 5889 5889 5888 5887 5886 5884 5883 5883 5882 5881 5881 5880 5881 5881
5873 5874 5875 5875 5875 5875 5877 5878 5879 5881 5881 5881 5881 5881 5882 5883 5884 5884 5885 5886 5886 5888 5891 5892 5892 5892 5890 5890 5891 5892 5892 5893 5894 5895 5895 5895 5896 5896 5896 5896 5896 5896 5896 5896 5896 5896 5896 5896 5897 5896 5896 5896 5896 5895 5895 5895 5895 5894 5894 5894 5894 5893 5892 5891 5891 5890 5890 5889 5888 5887 5885 5884 5884 5884 5883 5881 5880 5879 5879 5878 5877 5875 5874 5874 5875
5869 5870 5871 5871 5871 5871 5872 5874 5875 5875 5875 5876 5876 5876 5877 5878 5879 5880 5881 5881 5881 5881 5883 5884 5885 5885 5884 5883 5885 5886 5887 5889 5890 5891 5891 5891 5891 5891 5891 5891 5892 5892 5892 5892 5891 5891 5891 5891 5892 5891 5891 5891 5891 5890 5890 5890 5889 5889 5889 5889 5889 5888 5887 5887 5886 5885 5884 5883 5882 5881 5880 5879 5879 5878 5878 5877 5876 5875 5874 5873 5871 5870 5869 5869 5869
5864 5866 5867 5868 5869 5868 5867 5868 5869 5868 5868 5869 5869 5870 5871 5872 5873 5874 5875 5874 5874 5874 5875 5876 5878 5878 5877 5877 5879 5881 5883 5884 5885 5885 5885 5885 5886 5886 5886 5887 5887 5888 5887 5887 5886 5886 5886 5886 5887 5887 5886 5886 5885 5885 5885 5885 5884 5884 5884 5884 5884 5884 5883 5882 5882 5881 5880 5879 5877 5876 5875 5875 5874 5873 5873 5872 5871 5870 5868 5867 5866 5865 5864 5865 5865
5861 5862 5864 5865 5865 5865 5864 5864 5864 5864 5864 5864 5865 5866 5866 5866 5867 5868 5868 5867 5867 5867 5868 5870 5872 5872 5871 5872 5875 5877 5878 5878 5879 5879 5879 5879 5880 5880 5881 5882 5883 5883 5882 5882 5882 5881 5881 5881 5881 5881 5881 5881 5880 5880 5880 5880 5879 5879 5879 5879 5879 5878 5878 5877 5877 5876 5875 5874 5873 5872 5871 5870 5869 5869 5868 5868 5867 5865 5863 5862 5861 5860 5860 5861 5860
5856 5857 5859 5860 5861 5861 5862 5862 5862 5862 5862 5862 5862 5862 5862 5862 5863 5863 5862 5861 5861 5862 5864 5867 5868 5868 5867 5868 5870 5871 5872 5873 5873 5873 5874 5874 5875 5875 5876 5876 5877 5877 5877 5877 5877 5877 5877 5877 5877 5876 5876 5876 5876 5875 5875 5875 5875 5874 5874 5873 5873 5873 5872 5872 5871 5871 5871 5870 5868 5868 5866 5865 5865 5864 5864 5864 5862 5860 5859 5858 5857 5857 5857 5856 5856
5852 5853 5855 5856 5857 5858 5859 5859 5859 5860 5861 5861 5860 5860 5860 5860 5860 5860 5859 5857 5856 5857 5860 5862 5863 5863 5863 5863 5864 5865 5866 5867 5868 5868 5870 5870 5870 5870 5870 5870 5871 5872 5872 5872 5872 5872 5872 5872 5872 5872 5872 5871 5871 5871 5870 5870 5870 5870 5869 5869 5868 5868 5867 5867 5866 5865 5865 5865 5864 5863 5862 5861 5860 5860 5859 5858 5858 5856 5855 5854 5854 5853 5852 5852 5852
5849 5851 5852 5853 5854 5855 5856 5856 5857 5857 5858 5859 5858 5858 5858 5859 5858 5858 5857 5856 5855 5855 5857 5858 5858 5859 5860 5860 5860 5861 5862 5862 5863 5864 5866 5866 5865 5865 5865 5866 5866 5867 5867 5867 5867 5867 5867 5867 5867 5867 5867 5867 5866 5866 5866 5865 5865 5865 5864 5864 5863 5863 5862 5861 5861 5860 5860 5859 5858 5858 5857 5857 5856 5855 5854 5853 5853 5852 5850 5849 5849 5848 5848 5847 5847
5847 5848 5849 5850 5851 5852 5852 5853 5853 5854 5855 5856 5856 5856 5856 5856 5855 5855 5855 5855 5855 5855 5856 5856 5857 5857 5857 5857 5858 5858 5859 5860 5860 5861 5861 5862 5861 5861 5862 5862 5862 5862 5863 5863 5863 5863 5863 5862 5862 5862 5862 5862 5862 5861 5861 5860 5859 5859 5859 5858 5858 5858 5857 5856 5855 5854 5854 5854 5853 5852 5852 5851 5850 5850 5849 5848 5847 5846 5845 5844 5843 5843 5842 5841 5840
5845 5846 5847 5848 5848 5849 5849 5850 5850 5851 5852 5853 5853 5853 5854 5853 5853 5853 5853 5854 5854 5854 5855 5855 5856 5856 5856 5856 5856 5856 5857 5857 5858 5858 5858 5858 5858 5858 5858 5858 5858 5858 5858 5858 5858 5858 5857 5857 5857 5857 5857 5856 5856 5856 5856 5855 5854 5853 5853 5853 5852 5852 5852 5851 5850 5849 5848 5848 5847 5847 5846 5845 5844 5844 5843 5842 5841 5839 5838 5837 5836 5836 5835 5834 5833
5843 5844 5845 5846 5846 5846 5847 5847 5847 5848 5849 5849 5850 5851 5851 5851 5851 5851 5852 5852 5852 5853 5853 5854 5854 5854 5854 5854 5854 5854 5854 5855 5855 5855 5855 5855 5854 5854 5854 5854 5854 5854 5853 5853 5853 5852 5852 5852 5851 5851 5851 5850 5850 5850 5850 5850 5849 5848 5847 5847 5846 5846 5845 5845 5844 5843 5842 5842 5841 5840 5839 5838 5838 5837 5837 5835 5834 5833 5831 5830 5829 5828 5827 5826 5826
5842 5842 5843 5844 5844 5844 5845 5845 5845 5846 5846 5846 5847 5847 5848 5849 5849 5849 5850 5850 5850 5851 5851 5851 5851 5851 5851 5851 5851 5851 5851 5851 5851 5851 5851 5851 5851 5850 5850 5850 5849 5849 5849 5848 5847 5847 5846 5846 5845 5845 5845 5844 5844 5843 5842 5842 5842 5841 5841 5841 5839 5838 5838 5838 5837 5836 5836 5835 5834 5833 5833 5831 5831 5830 5830 5828 5827 5826 5825 5824 5822 5821 5820 5819 5818
5839 5840 5841 5842 5842 5843 5843 5844 5844 5844 5844 5844 5845 5845 5845 5846 5846 5847 5847 5847 5847 5848 5848 5848 5848 5848 5848 5848 5848 5847 5847 5847 5847 5847 5847 5846 5846 5846 5846 5845 5845 5844 5843 5843 5842 5841 5840 5840 5839 5839 5838 5837 5837 5836 5835 5834 5834 5834 5833 5833 5833 5831 5831 5830 5829 5828 5828 5827 5826 5825 5825 5824 5823 5822 5822 5821 5820 5819 5818 5816 5815 5814 5813 5812 5811
5837 5838 5838 5839 5840 5840 5841 5841 5842 5842 5842 5842 5842 5842 5842 5842 5843 5843 5843 5844 5844 5844 5844 5845 5845 5845 5845 5844 5844 5844 5844 5843 5843 5842 5842 5841 5841 5840 5840 5839 5839 5838 5838 5837 5836 5835 5834 5833 5833 5832 5831 5830 5830 5830 5828 5827 5826 5826 5825 5825 5824 5824 5823 5822 5821 5820 5819 5819 5818 5817 5816 5815 5814 5813 5813 5812 5811 5810 5809 5808 5807 5806 5805 5804 5803
5834 5835 5835 5836 5836 5837 5837 5838 5838 5838 5839 5839 5839 5839 5839 5839 5839 5840 5840 5840 5840 5840 5840 5840 5840 5840 5840 5840 5840 5840 5839 5839 5838 5838 5837 5836 5835 5835 5834 5833 5833 5832 5831 5830 5829 5828 5827 5826 5826 5825 5823 5822 5822 5822 5820 5819 5818 5817 5817 5816 5815 5815 5814 5813 5812 5811 5810 5810 5809 5808 5807 5806 5805 5804 5803 5803 5802 5801 5800 5799 5799 5798 5797 5796 5795
5831 5831 5832 5832 5832 5833 5833 5833 5834 5834 5835 5835 5835 5836 5836 5836 5836 5836 5836 5836 5836 5836 5836 5836 5836 5836 5835 5835 5835 5835 5834 5834 5833 5832 5832 5831 5830 5829 5828 5827 5826 5825 5825 5823 5822 5821 5821 5819 5819 5818 5816 5814 5813 5813 5812 5811 5810 5809 5808 5806 5806 5805 5804 5803 5802 5801 5800 5800 5799 5798 5797 5797 5796 5795 5794 5794 5793 5792 5791 5791 5790 5789 5788 5787 5786
5827 5828 5828 5829 5829 5829 5829 5830 5830 5831 5831 5831 5832 5832 5832 5832 5833 5833 5833 5833 5833 5833 5832 5832 5832 5831 5831 5831 5830 5830 5829 5829 5828 5827 5826 5825 5824 5824 5823 5821 5820 5819 5819 5817 5815 5814 5813 5812 5810 5810 5808 5806 5805 5804 5803 5802 5801 5800 5798 5797 5796 5795 5794 5793 5792 5791 5790 5790 5789 5788 5787 5787 5786 5785 5783 5783 5783 5781 5781 5780 5779 5779 5779 5777 5776
5825 5825 5825 5826 5826 5826 5826 5827 5827 5827 5828 5828 5828 5828 5828 5828 5828 5829 5829 5829 5829 5828 5828 5828 5827 5826 5826 5826 5825 5824 5823 5823 5822 5821 5820 5819 5818 5817 5815 5814 5812 5811 5810 5809 5809 5808 5806 5803 5802 5801 5800 5798 5796 5795 5794 5792 5791 5790 5788 5787 5786 5785 5784 5784 5783 5781 5780 5780 5779 5778 5776 5776 5776 5775 5773 5773 5772 5771 5770 5770 5769 5768 5768 5767 5765
5822 5823 5823 5823 5823 5823 5824 5824 5824 5824 5824 5825 5824 5824 5824 5824 5824 5824 5824 5824 5823 5823 5823 5822 5822 5820 5820 5820 5819 5818 5817 5816 5815 5814 5813 5812 5811 5809 5807 5805 5804 5802 5800 5799 5799 5799 5797 5795 5794 5792 5790 5789 5787 5786 5784 5783 5782 5781 5779 5777 5776 5775 5774 5773 5773 5771 5769 5769 5770 5769 5767 5766 5765 5765 5763 5762 5762 5761 5760 5760 5758 5757 5757 5757 5755
5820 5820 5820 5821 5821 5821 5821 5821 5821 5821 5822 5822 5821 5821 5821 5820 5820 5819 5819 5819 5818 5817 5816 5816 5815 5814 5814 5814 5813 5812 5810 5809 5808 5806 5805 5804 5803 5802 5800 5797 5795 5793 5791 5790 5789 5788 5786 5785 5784 5783 5781 5779 5778 5776 5775 5773 5771 5771 5770 5767 5765 5765 5764 5762 5761 5760 5759 5759 5759 5758 5756 5755 5754 5754 5753 5752 5751 5751 5750 5749 5748 5747 5747 5746 5745
5817 5817 5818 5818 5818 5818 5818 5818 5818 5818 5818 5818 5818 5818 5817 5816 5816 5815 5815 5814 5813 5812 5811 5810 5809 5808 5807 5807 5807 5805 5803 5801 5799 5798 5796 5794 5793 5792 5791 5789 5786 5783 5782 5781 5780 5778 5775 5773 5774 5773 5771 5770 5768 5766 5765 5762 5760 5760 5759 5755 5753 5754 5753 5750 5749 5748 5747 5747 5746 5744 5743 5743 5743 5742 5742 5741 5740 5740 5739 5738 5738 5737 5736 5735 5735
5814 5814 5815 5815 5815 5815 5815 5815 5815 5815 5815 5814 5814 5814 5813 5812 5811 5810 5810 5809 5808 5807 5806 5804 5803 5801 5801 5799 5798 5797 5795 5793 5792 5789 5787 5785 5783 5781 5780 5778 5774 5772 5772 5771 5769 5767 5763 5761 5761 5761 5760 5759 5759 5757 5754 5750 5747 5748 5747 5743 5741 5743 5741 5737 5736 5737 5736 5735 5734 5731 5730 5731 5731 5729 5729 5729 5728 5728 5727 5727 5726 5726 5725 5724 5724
5811 5811 5811 5811 5811 5811 5811 5811 5811 5811 5810 5810 5809 5808 5808 5807 5806 5805 5804 5803 5802 5801 5800 5798 5796 5795 5794 5793 5790 5788 5787 5785 5783 5781 5778 5776 5774 5771 5769 5766 5762 5759 5760 5759 5757 5755 5752 5749 5748 5748 5747 5745 5745 5744 5741 5736 5733 5735 5734 5729 5728 5731 5728 5723 5722 5724 5724 5723 5723 5720 5718 5718 5718 5717 5716 5717 5717 5716 5715 5715 5715 5714 5713 5713 5713
5808 5808 5808 5808 5808 5808 5807 5807 5807 5806 5806 5805 5804 5804 5803 5802 5801 5800 5799 5798 5797 5795 5793 5791 5789 5787 5786 5785 5782 5780 5778 5776 5774 5771 5769 5767 5764 5762 5759 5756 5751 5749 5748 5747 5745 5743 5740 5736 5736 5736 5735 5732 5731 5729 5727 5722 5719 5720 5719 5715 5714 5716 5713 5708 5708 5711 5710 5708 5708 5708 5706 5705 5705 5705 5704 5704 5704 5704 5704 5703 5703 5703 5702 5702 5702
5806 5806 5805 5805 5805 5805 5804 5804 5803 5803 5802 5801 5800 5800 5798 5797 5796 5796 5794 5793 5791 5789 5786 5784 5782 5779 5778 5776 5774 5771 5768 5766 5764 5762 5759 5756 5754 5751 5748 5745 5741 5738 5737 5736 5734 5731 5727 5724 5724 5725 5723 5720 5718 5717 5716 5713 5709 5707 5705 5701 5699 5700 5698 5694 5695 5697 5695 5691 5691 5693 5693 5693 5693 5692 5692 5692 5693 5693 5692 5691 5691 5691 5691 5691 5690
5802 5802 5802 5802 5801 5801 5801 5800 5799 5798 5798 5797 5796 5795 5794 5792 5791 5790 5788 5787 5785 5783 5780 5778 5775 5772 5770 5767 5765 5763 5760 5757 5755 5753 5749 5746 5743 5741 5738 5734 5730 5727 5726 5725 5723 5719 5716 5714 5714 5714 5711 5707 5706 5705 5705 5702 5700 5697 5694 5690 5686 5686 5684 5682 5682 5683 5682 5680 5678 5679 5679 5680 5681 5680 5680 5681 5682 5681 5680 5680 5680 5681 5681 5680 5679
5799 5798 5798 5797 5797 5796 5795 5795 5794 5793 5792 5791 5790 5789 5788 5786 5785 5783 5782 5780 5778 5775 5772 5770 5768 5765 5762 5759 5757 5755 5751 5748 5746 5744 5741 5738 5734 5731 5728 5724 5721 5718 5716 5715 5712 5708 5706 5705 5704 5702 5699 5696 5695 5694 5692 5689 5686 5685 5683 5680 5676 5674 5672 5671 5670 5670 5671 5670 5670 5669 5669 5670 5671 5670 5669 5670 5670 5670 5670 5670 5670 5670 5670 5669 5668
5795 5794 5794 5793 5793 5792 5791 5790 5789 5788 5787 5786 5784 5783 5782 5780 5779 5777 5775 5772 5769 5766 5763 5761 5758 5755 5752 5749 5747 5744 5741 5738 5735 5733 5731 5729 5725 5721 5718 5715 5712 5709 5707 5706 5703 5700 5696 5694 5693 5691 5688 5686 5685 5683 5680 5676 5674 5672 5671 5670 5668 5664 5662 5661 5660 5660 5661 5662 5661 5660 5660 5661 5661 5661 5661 5661 5661 5660 5660 5660 5660 5660 5660 5660 5659
5790 5789 5789 5789 5788 5787 5787 5786 5785 5784 5782 5781 5779 5778 5776 5774 5772 5769 5767 5764 5761 5758 5755 5752 5749 5746 5743 5740 5737 5734 5731 5728 5724 5722 5720 5719 5715 5711 5707 5705 5702 5699 5697 5696 5694 5691 5687 5684 5682 5680 5677 5676 5675 5672 5668 5665 5663 5661 5661 5661 5660 5657 5654 5653 5652 5652 5652 5653 5653 5653 5653 5653 5652 5652 5652 5652 5652 5651 5651 5651 5651 5651 5651 5650 5650
5786 5785 5784 5783 5783 5782 5781 5780 5779 5778 5776 5774 5773 5771 5769 5766 5763 5760 5758 5755 5752 5748 5745 5742 5740 5736 5733 5731 5727 5724 5721 5718 5714 5711 5709 5708 5705 5702 5698 5695 5692 5689 5687 5685 5684 5682 5678 5674 5671 5669 5667 5664 5663 5661 5658 5655 5653 5651 5651 5651 5651 5649 5647 5646 5645 5645 5645 5645 5645 5645 5645 5645 5645 5645 5644 5644 5644 5643 5643 5642 5642 5642 5642 5642 5641
5781 5780 5779 5778 5777 5776 5775 5773 5772 5771 5769 5767 5765 5763 5760 5757 5754 5751 5748 5745 5741 5739 5736 5733 5730 5727 5724 5720 5717 5713 5710 5708 5705 5701 5698 5696 5695 5692 5689 5686 5683 5681 5678 5676 5674 5672 5669 5665 5662 5660 5657 5654 5651 5649 5647 5645 5644 5642 5642 5642 5641 5640 5639 5638 5637 5637 5637 5637 5637 5637 5637 5637 5637 5637 5637 5636 5635 5635 5634 5634 5634 5634 5634 5633 5633
5776 5775 5774 5773 5771 5770 5769 5767 5765 5764 5762 5759 5757 5755 5752 5749 5746 5743 5740 5736 5733 5730 5728 5725 5721 5718 5716 5713 5709 5705 5701 5698 5695 5692 5689 5686 5684 5682 5680 5678 5675 5672 5670 5668 5665 5662 5660 5657 5654 5650 5647 5644 5642 5640 5639 5637 5635 5634 5634 5634 5634 5633 5632 5631 5630 5630 5630 5630 5630 5630 5629 5629 5630 5630 5629 5628 5628 5627 5627 5627 5627 5626 5626 5626 5626
5771 5769 5768 5767 5766 5764 5763 5761 5759 5757 5755 5753 5750 5747 5744 5741 5738 5735 5732 5728 5724 5721 5719 5716 5712 5709 5707 5704 5701 5698 5694 5689 5685 5682 5680 5677 5675 5673 5671 5669 5666 5664 5661 5659 5657 5654 5652 5649 5646 5642 5639 5636 5634 5634 5632 5631 5629 5628 5628 5627 5627 5627 5626 5625 5624 5623 5623 5623 5623 5623 5623 5623 5623 5623 5622 5621 5621 5620 5620 5620 5620 5620 5620 5620 5620